[[{"header":{"parameterUnit":"m.s-1","parameterCategory":1,"la1":30.2991,"la2":30.254,"lo1":-89.0895,"lo2":-89.0444,"dy":0.0017,"dx":0.0017,"nx":28,"ny":28,"refTime":"2023-09-03T09:00:00:Z","depth":0,"parameterNumber":2,"parameterNumberName":"U-component_of_WINDS"},"data":[0,0,0,0,0,0,0,0,0,0,0,0,0,0,0,0,0,0,0,0,0,0,0,0,0,0,0,0,0,0,0,0,0,0,0,0,0,0,0,0,0,0,0,0,0,0,0,0,0,0,0,0,0,0,0,0,0,0,-4.6909,-4.691,0,-4.6956,-4.6957,-4.6957,-4.6906,-4.6904,-4.6902,-4.69,-4.6945,-4.6948,-4.6951,0,0,0,0,0,0,0,0,0,0,0,0,0,-4.6772,-4.6775,-4.6909,-4.691,-4.691,-4.6956,-4.6957,-4.6957,-4.6906,-4.6904,-4.6902,-4.6899,-4.6944,-4.6947,-4.6951,0,0,0,0,0,0,0,0,0,0,0,0,0,-4.6826,-4.6776,-4.6909,-4.689,-4.6889,-4.6956,-4.6957,-4.6958,-4.6907,-4.6904,-4.6901,-4.6898,-4.6943,-4.6947,-4.6952,-4.7038,0,0,-4.6965,-4.6967,0,0,0,0,0,0,0,0,-4.6823,-4.6831,-4.6893,-4.6892,-4.6891,-4.6922,-4.6925,-4.6984,-4.6907,-4.69,-4.69,-4.6897,-4.694,-4.6944,-4.6959,-4.704,-4.7042,-4.6966,-4.6968,-4.697,-4.6972,0,0,0,0,0,0,0,-4.682,-4.6829,-4.6928,-4.6894,-4.6892,-4.6879,-4.6883,-4.6936,-4.6935,-4.69,-4.6897,-4.6903,-4.6938,-4.6955,-4.696,-4.7043,-4.6966,-4.697,-4.6972,-4.6974,-4.7195,-4.7198,0,0,0,0,0,0,-4.6818,-4.6826,-4.6926,-4.6929,-4.6849,-4.6884,-4.6889,-4.6915,-4.6935,-4.6935,-4.6906,-4.6901,-4.6949,-4.6955,-4.6961,-4.7062,-4.697,-4.6975,-4.6977,-4.7192,-4.7196,-4.7199,0,0,0,0,0,0,-4.6816,-4.6828,-4.6924,-4.6877,-4.6888,-4.6889,-4.6919,-4.6917,-4.6934,-4.6939,-4.6938,-4.6923,-4.6947,-4.6955,-4.7019,-4.7063,-4.6977,-4.6981,-4.7188,-4.7193,-4.7198,-4.7266,0,0,0,0,0,0,-4.6812,-4.6827,-4.6861,-4.6878,-4.6891,-4.6982,-4.6922,-4.6921,-4.6942,-4.6936,-4.6955,-4.6955,-4.6945,-4.7013,-4.7024,-4.7068,-4.6984,-4.7184,-4.7191,-4.7196,-4.726,-4.7272,-4.7283,0,0,0,0,0,-4.6807,-4.6877,-4.6863,-4.6875,-4.6933,-4.6985,-4.6992,-4.698,-4.6946,-4.6979,-4.6982,-4.6954,-4.7057,-4.702,-4.7032,-4.7078,-4.7182,-4.7189,-4.7196,-4.7254,-4.727,-4.7283,0,0,0,0,0,0,-4.6864,-4.6879,-4.6863,-4.6941,-4.6962,-4.6976,-4.7017,-4.6997,-4.7028,-4.702,-4.7003,-4.7008,-4.7076,-4.7084,-4.7042,-4.7162,-4.7114,-4.7123,-4.7154,-4.7169,-4.718,-4.7176,-4.6988,0,0,0,0,0,-4.6886,-4.6928,-4.6939,-4.7007,-4.7018,-4.7017,-4.7039,-4.7028,-4.7049,-4.7057,-4.7065,-4.7085,-4.7122,-4.7146,-4.718,-4.7261,-4.7264,-4.7299,-4.7311,-4.732,-4.7328,-4.737,-4.7385,-4.7223,-4.7223,-4.7223,0,0,-4.693,-4.6944,-4.6972,-4.7018,-4.7033,-4.7076,-4.7024,-4.7072,-4.7103,-4.7064,-4.7124,-4.7132,-4.7153,-4.7226,-4.7258,-4.7234,-4.7374,-4.733,-4.7337,-4.734,-4.7379,-4.7394,-4.7408,-4.7228,-4.7227,-4.7226,0,0,-4.7033,-4.7049,-4.7107,-4.7123,-4.7147,-4.7146,-4.716,-4.7178,-4.7181,-4.7242,-4.7213,-4.725,-4.7314,-4.733,-4.7347,-4.7458,-4.7432,-4.7469,-4.753,-4.7571,-4.7584,-4.7595,-4.7632,-4.7646,-4.7478,-4.7478,-4.7478,0,-4.7085,-4.715,-4.7138,-4.7188,-4.7209,-4.7178,-4.7235,-4.7251,-4.7285,-4.7299,-4.7273,-4.7352,-4.7365,-4.744,-4.7467,-4.7482,-4.7496,-4.7466,-4.7583,-4.7594,-4.7604,-4.764,-4.7654,-4.7482,-4.7482,-4.7481,-4.7481,0,-4.7212,-4.7257,-4.7301,-4.7335,-4.7361,-4.7414,-4.741,-4.7437,-4.7425,-4.7426,-4.7488,-4.7503,-4.7538,-4.7556,-4.7544,-4.763,-4.7614,-4.7586,-4.7536,-4.7624,-4.7657,-4.7671,-4.7488,-4.7486,-4.7485,-4.7484,0,0,-4.7349,-4.7378,-4.7394,-4.7409,-4.7434,-4.7468,-4.752,-4.7556,-4.7579,-4.7604,-4.7645,-4.7701,-4.7675,-4.7694,-4.7684,-4.772,-4.7805,-4.7687,-4.7687,-4.7706,-4.7898,-4.7917,-4.7933,-4.779,-4.7792,-4.7794,-4.7895,0,-4.7451,-4.7542,-4.7533,-4.7619,-4.7659,-4.7631,-4.7676,-4.7695,-4.7698,-4.7732,-4.7735,-4.7774,-4.7738,-4.7749,-4.7784,-4.7787,-4.7843,-4.778,-4.7826,-4.7828,-4.7819,-4.7951,-4.7972,-4.8066,-4.7909,-4.7911,-4.7912,0,-4.7582,-4.7612,-4.7702,-4.772,-4.7737,-4.7777,-4.781,-4.7844,-4.7865,-4.7864,-4.7887,-4.787,-4.7921,-4.7873,-4.7942,-4.7899,-4.7918,-4.7923,-4.7926,-4.7928,-4.7873,-4.7954,-4.8096,-4.811,-4.7933,-4.7931,-4.793,0,-4.767,-4.7734,-4.7795,-4.7809,-4.7833,-4.7862,-4.7873,-4.7892,-4.7914,-4.7942,-4.7956,-4.799,-4.8008,-4.8034,-4.8027,-4.7993,-4.8097,-4.8049,-4.8096,-4.8096,-4.8117,-4.8115,-4.8262,-4.8133,-4.8133,-4.8133,-4.8133,0,-4.7783,-4.7839,-4.7835,-4.7873,-4.7934,-4.7924,-4.7984,-4.7991,-4.8008,-4.8046,-4.8024,-4.8059,-4.8049,-4.8084,-4.8079,-4.8135,-4.8144,-4.8144,-4.8141,-4.8144,-4.8144,-4.8154,-4.8146,-4.8137,-4.8136,-4.8135,-4.8134,0,-4.7891,-4.7892,-4.7956,-4.7974,-4.798,-4.8024,-4.8038,-4.8073,-4.8075,-4.8123,-4.8133,-4.8136,-4.8175,-4.8172,-4.8216,-4.8213,-4.8282,-4.8273,-4.8275,-4.8272,-4.8319,-4.8314,-4.8475,-4.8495,-4.8356,-4.8358,-4.8359,0,-4.7962,-4.8004,-4.8027,-4.8051,-4.8064,-4.8103,-4.8126,-4.8118,-4.8143,-4.8171,-4.8202,-4.824,-4.827,-4.8335,-4.834,-4.8373,-4.8363,-4.8418,-4.8368,-4.837,-4.8361,-4.8358,-4.8361,-4.8427,-4.8428,-4.8429,-4.843,0,-4.8087,-4.8085,-4.812,-4.8155,-4.8183,-4.821,-4.8234,-4.8255,-4.8249,-4.8278,-4.8319,-4.8342,-4.8388,-4.8426,-4.8458,-4.8468,-4.8448,-4.8447,-4.8459,-4.8461,-4.846,-4.8459,-4.8299,-4.8442,-4.8441,-4.844,-4.844,-4.8439,-4.8177,-4.8213,-4.8234,-4.8273,-4.8291,-4.8314,-4.8348,-4.8354,-4.8389,-4.8426,-4.8419,-4.8465,-4.8485,-4.8526,-4.854,-4.8575,-4.8555,-4.8573,-4.8577,-4.8581,-4.8586,-4.8457,-4.8581,-4.858,-4.858,-4.858,-4.858,0,-4.8299,-4.8312,-4.8348,-4.8383,-4.8414,-4.8395,-4.842,-4.8447,-4.8488,-4.8509,-4.8539,-4.8585,-4.8622,-4.8631,-4.8665,-4.8691,-4.8683,-4.87,-4.8697,-4.8699,-4.8603,-4.8587,-4.8706,-4.8706,-4.8706,-4.8706,-4.8706,-4.8706,-4.8366,-4.8425,-4.8426,-4.8493,-4.8505,-4.855,-4.8566,-4.8587,-4.8604,-4.8657,-4.8688,-4.8694,-4.871,-4.8745,-4.8777,-4.8779,-4.8792,-4.8812,-4.881,-4.8719,-4.8706,-4.8694,-4.8679,-4.8816,-4.8816,-4.8903,-4.8904,-4.8905]},{"header":{"parameterUnit":"m.s-1","parameterCategory":1,"la1":30.2991,"la2":30.254,"lo1":-89.0895,"lo2":-89.0444,"dy":0.0017,"dx":0.0017,"nx":28,"ny":28,"refTime":"2023-09-03T09:00:00:Z","depth":0,"parameterNumber":3,"parameterNumberName":"V-component_of_WINDS"},"data":[0,0,0,0,0,0,0,0,0,0,0,0,0,0,0,0,0,0,0,0,0,0,0,0,0,0,0,0,0,0,0,0,0,0,0,0,0,0,0,0,0,0,0,0,0,0,0,0,0,0,0,0,0,0,0,0,0,0,3.9289,3.9289,0,3.933,3.933,3.9331,3.9304,3.9303,3.9302,3.9301,3.9341,3.9343,3.9345,0,0,0,0,0,0,0,0,0,0,0,0,0,3.9185,3.9187,3.9289,3.9289,3.929,3.933,3.933,3.9331,3.9304,3.9303,3.9301,3.93,3.934,3.9343,3.9345,0,0,0,0,0,0,0,0,0,0,0,0,0,3.9229,3.9188,3.9288,3.9281,3.9281,3.933,3.933,3.9331,3.9305,3.9303,3.9301,3.9299,3.9339,3.9342,3.9346,3.9403,0,0,3.9356,3.9357,0,0,0,0,0,0,0,0,3.9226,3.9232,3.9282,3.9282,3.9282,3.931,3.9309,3.9355,3.9305,3.9296,3.93,3.9298,3.9332,3.9336,3.9347,3.9405,3.9407,3.9356,3.9358,3.936,3.936,0,0,0,0,0,0,0,3.9223,3.923,3.9305,3.9283,3.9282,3.9275,3.928,3.9317,3.9324,3.9296,3.9294,3.93,3.9331,3.9344,3.9348,3.9407,3.9356,3.9359,3.9361,3.9362,3.9515,3.9517,0,0,0,0,0,0,3.9221,3.9228,3.9304,3.9306,3.9249,3.9279,3.9283,3.9303,3.9323,3.9324,3.9301,3.9298,3.9339,3.9344,3.9349,3.9418,3.936,3.9363,3.9365,3.9513,3.9515,3.9518,0,0,0,0,0,0,3.9219,3.9228,3.9302,3.9267,3.9276,3.9283,3.9304,3.9305,3.9317,3.9327,3.9328,3.9313,3.9338,3.9345,3.939,3.9419,3.9364,3.9367,3.951,3.9514,3.9516,3.9556,0,0,0,0,0,0,3.9216,3.9227,3.925,3.9267,3.9278,3.9342,3.9306,3.9307,3.9323,3.932,3.9338,3.934,3.9337,3.9385,3.9394,3.9423,3.937,3.9508,3.9512,3.9515,3.9552,3.956,3.9567,0,0,0,0,0,3.9212,3.9259,3.9251,3.926,3.9306,3.9344,3.935,3.9347,3.9326,3.9348,3.9354,3.9339,3.9415,3.939,3.9399,3.943,3.9506,3.9511,3.9515,3.9549,3.9559,3.9567,0,0,0,0,0,0,3.9243,3.9261,3.9252,3.9306,3.9324,3.934,3.9367,3.9357,3.9381,3.9376,3.9371,3.9376,3.9423,3.9431,3.9403,3.9487,3.9457,3.9464,3.948,3.9489,3.9496,3.9493,3.9373,0,0,0,0,0,3.9256,3.9286,3.93,3.9346,3.9356,3.936,3.9377,3.9373,3.9391,3.9398,3.9408,3.9426,3.9454,3.9472,3.9498,3.9554,3.9557,3.9579,3.9587,3.9593,3.9598,3.9628,3.9638,3.9533,3.9533,3.9533,0,0,3.9283,3.9296,3.9316,3.9352,3.9366,3.9397,3.9367,3.9401,3.9424,3.9403,3.9447,3.9455,3.9474,3.9525,3.9548,3.9533,3.9628,3.9599,3.9603,3.9605,3.9634,3.9644,3.9653,3.9536,3.9535,3.9535,0,0,3.9347,3.9361,3.9401,3.9415,3.9437,3.944,3.945,3.9467,3.9472,3.9516,3.9502,3.9529,3.9577,3.9592,3.9605,3.9678,3.9664,3.9686,3.9724,3.9754,3.9762,3.9769,3.9795,3.9804,3.9692,3.9692,3.9692,0,3.9378,3.9425,3.9422,3.9458,3.9474,3.9459,3.9499,3.9513,3.9542,3.9553,3.9537,3.9597,3.9609,3.9663,3.9681,3.9693,3.9704,3.9683,3.9761,3.9769,3.9775,3.9799,3.9809,3.9694,3.9694,3.9694,3.9694,0,3.9461,3.9494,3.9524,3.9553,3.9573,3.961,3.9613,3.9633,3.9629,3.9633,3.9678,3.9693,3.9722,3.9734,3.9729,3.9788,3.9779,3.9762,3.9731,3.9788,3.981,3.982,3.9698,3.9697,3.9696,3.9696,0,0,3.9544,3.9573,3.9584,3.9597,3.962,3.9645,3.9682,3.9712,3.9729,3.975,3.9781,3.9823,3.9808,3.9823,3.982,3.9846,3.9902,3.9826,3.9826,3.9839,3.9968,3.9979,3.999,3.9894,3.9896,3.9897,3.9966,0,3.961,3.9676,3.9675,3.9735,3.9766,3.9752,3.9784,3.9802,3.9808,3.9834,3.984,3.987,3.9848,3.9858,3.9883,3.989,3.9928,3.9885,3.9922,3.9923,3.9916,4.0002,4.0014,4.0078,3.9975,3.9976,3.9977,0,3.9695,3.972,3.9783,3.9803,3.9816,3.9845,3.9872,3.9897,3.9917,3.992,3.9938,3.9931,3.9969,3.9938,3.999,3.9961,3.9976,3.9982,3.9985,3.9987,3.9953,4.0006,4.0098,4.0108,3.9991,3.999,3.9989,0,3.9749,3.9798,3.9843,3.9854,3.9878,3.9899,3.991,3.9928,3.9946,3.997,3.9981,4.0009,4.0024,4.0045,4.0046,4.0024,4.0098,4.0068,4.01,4.01,4.0115,4.0114,4.0211,4.0127,4.0127,4.0127,4.0126,0,3.9822,3.9861,3.9867,3.9894,3.9938,3.9937,3.998,3.9989,4.0006,4.0034,4.0024,4.0051,4.0051,4.0078,4.0079,4.0122,4.0128,4.0131,4.0131,4.0132,4.0131,4.014,4.0136,4.0129,4.0129,4.0128,4.0128,0,3.9889,3.9895,3.9942,3.9962,3.9967,3.9999,4.0015,4.0041,4.0046,4.0083,4.0091,4.0099,4.0131,4.0135,4.0171,4.0172,4.0223,4.0218,4.0216,4.0215,4.0248,4.0244,4.0353,4.0367,4.0275,4.0275,4.0276,0,3.9935,3.9965,3.9988,4.0007,4.0019,4.0049,4.0068,4.0068,4.0088,4.0114,4.0136,4.0168,4.0192,4.0244,4.0253,4.0281,4.0276,4.0312,4.028,4.028,4.0276,4.0274,4.0277,4.0318,4.0319,4.032,4.0321,0,4.0015,4.0017,4.0044,4.0073,4.0096,4.0118,4.0139,4.0155,4.0159,4.0181,4.0214,4.0233,4.0272,4.0302,4.0331,4.0341,4.0332,4.0331,4.034,4.0341,4.0338,4.0339,4.0232,4.0328,4.0327,4.0327,4.0326,4.0326,4.0072,4.0099,4.0119,4.015,4.0167,4.0187,4.0212,4.0222,4.0249,4.0281,4.028,4.0316,4.0335,4.0372,4.0385,4.0413,4.0401,4.0414,4.0417,4.042,4.0423,4.0335,4.0418,4.0418,4.0418,4.0418,4.0418,0,4.0152,4.0165,4.0193,4.0224,4.0248,4.0239,4.0262,4.0283,4.0315,4.0335,4.036,4.0398,4.0428,4.044,4.0469,4.049,4.0486,4.0497,4.0495,4.0498,4.0433,4.0422,4.05,4.05,4.05,4.05,4.05,4.05,4.0196,4.024,4.0244,4.0296,4.0309,4.0345,4.0359,4.0377,4.0393,4.0436,4.0462,4.047,4.0486,4.0517,4.0544,4.0547,4.0558,4.0571,4.0572,4.0511,4.0502,4.0494,4.0484,4.0574,4.0574,4.0635,4.0635,4.0636]}]]